Retour au catalogue

KINEIS-5E

ActifCommunicationsSSO
NORAD 62083·PAYLOAD·🇫🇷 France

Lancé Nov 25, 2024 depuis Rocket Lab Launch Complex 1

Loading…

Prochains Passages (prochaines 24 heures)

TLE

FraisSource: Space-Track

Époque: Sep 14, 2026, 16:16 UTC

1 62083U 24219C   26257.67811230  .00000445  00000-0  78030-4 0  9992
2 62083  97.9107  54.1617 0005967 352.4301   7.6815 14.72288107 96937

Suivez KINEIS-5E en temps réel avec AllMySat

Download on the App Store